Tracking 19576 objects as of 17-Feb-2019
HD Live streaming from Space Station
objects crossing your sky now

LEASAT 4

Track LEASAT 4 now!
LEASAT 4 is classified as:


NORAD ID: 15995
Int'l Code: 1985-076D
Perigee: 36,454.0 km
Apogee: 36,548.6 km
Inclination: 13.4 °
Period: 1,472.4 minutes
Semi major axis: 42872 km
RCS: 16.7803 m2 (large)
Launch date: August 27, 1985
Source: United States (US)
Launch site: AIR FORCE EASTERN TEST RANGE (AFETR)
aabbcc
Your satellite tracking list
Your tracking list is empty




NASA's NSSDC Master Catalog

Two Line Element Set (TLE):
1 15995U 85076D   19048.19740146 -.00000149  00000-0  00000+0 0  9993
2 15995  13.3657 347.5218 0011027 313.2117 233.6532  0.97799684 91941
Source of the keplerian elements: AFSPC